Location: B?lite?ti
(46.2833°N, 22.7333°E)
Time: 17:10:15
(UTC+00:00)

SAR-Lupe-4 - Pass Details

Date: 24 January 2021
Orbit: 480 x 484 km, 98.2° (Epoch: 27 February)

Event Time Altitude Azimuth Distance (km) Brightness Sun altitude
Exits shadow 16:49:55 22° 38° (NE) 1,093 4.9 -15.1°
Maximum altitude 16:51:51 44° 100° (E) 677 3.8 -15.4°
Drops below altitude 10° 16:55:16 10° 174° (S) 1,654 6.3 -16.0°
Sets 16:57:22 0° 181° (S) 2,528 7.4 -16.4°
